Temperature
6 6 6 7 7 8 7 8 8 9 10 9 10 10 11 12 12 12 12 12 12 12 12 12 12 12 12 12 12 13 13 13 13 13 13 13 13 14 14 14 14 14 14 14
6 6 7 7 7 7 7 7 8 9 9 9 10 10 11 12 12 12 12 12 12 12 12 12 12 12 12 12 12 12 13 13 13 13 13 13 14 14 14 14 14 13 14 13
6 7 7 7 7 6 7 7 8 8 9 9 10 10 11 12 12 11 12 12 12 12 12 12 12 12 12 12 12 12 12 12 12 13 13 13 13 13 13 13 13 13 13 13
6 7 6 6 6 7 7 8 8 8 8 9 10 10 11 12 12 12 12 12 12 12 12 12 12 12 12 12 12 12 12 12 12 13 13 13 13 13 13 13 13 13 13 13
6 6 6 6 7 7 8 8 8 8 8 9 10 10 12 12 12 12 12 12 12 11 12 12 12 12 13 12 12 12 12 12 12 12 13 13 13 13 13 13 13 13 13 13
7 7 6 6 7 7 8 8 8 8 9 9 10 11 11 12 12 12 12 12 11 11 11 11 12 12 12 13 12 12 13 13 13 12 12 12 12 12 12 12 13 13 13 13
7 7 7 7 7 7 7 8 8 8 9 9 10 10 11 11 11 11 11 11 10 10 11 11 11 11 12 12 13 13 13 13 13 13 13 13 13 12 12 12 12 12 12 12
7 7 7 7 7 7 8 8 9 10 10 10 9 10 11 10 10 9 9 9 9 9 9 10 10 11 12 12 12 13 13 13 13 13 13 13 13 13 12 12 12 12 12 12
8 8 8 7 8 8 8 8 9 10 10 10 10 10 11 11 10 9 9 9 8 8 8 9 10 11 11 11 12 12 12 12 13 13 13 13 12 12 12 12 12 12 12 12
8 7 8 8 8 8 8 9 9 9 10 11 10 10 10 9 9 9 9 8 7 7 7 8 9 10 10 11 11 11 12 12 12 12 12 12 12 12 12 12 12 12 12 12
7 8 8 8 8 8 8 9 9 10 10 11 11 10 9 8 8 8 7 6 6 6 6 7 8 9 9 10 10 11 11 11 12 12 12 12 12 12 12 12 11 11 11 11
8 8 8 8 8 8 8 9 9 10 9 10 11 10 8 8 8 7 7 6 5 5 6 7 7 8 9 9 10 10 10 11 11 11 11 11 11 11 11 11 11 11 11 11
8 8 8 9 9 8 8 8 8 9 9 10 11 10 8 8 7 7 6 6 5 5 5 6 7 8 8 9 9 9 10 10 10 10 10 11 11 11 11 11 10 10 10 10
8 8 8 9 9 8 8 8 9 9 10 10 10 9 8 8 7 7 6 5 5 4 5 5 6 7 7 8 8 9 9 9 9 10 10 10 10 10 10 10 10 10 9 9
9 8 7 7 7 8 8 8 8 8 9 10 10 9 8 8 7 6 5 5 4 4 4 5 5 6 7 7 8 8 8 8 9 9 9 9 9 9 9 9 9 9 8 8
8 8 7 7 8 8 8 8 8 8 8 9 9 8 7 7 6 5 5 4 4 3 3 4 5 5 6 6 7 7 7 8 8 8 8 8 8 8 8 8 8 8 8 8
8 8 7 8 8 8 9 8 7 7 7 8 9 8 6 6 5 4 4 3 3 2 3 3 4 4 5 5 6 6 6 7 7 7 7 7 7 7 7 7 7 7 7 7
8 8 7 8 8 8 8 6 6 7 6 6 6 6 6 5 4 3 2 2 2 2 2 3 3 4 4 4 4 5 5 5 6 6 6 6 6 6 6 6 6 6 6 6
7 8 7 8 8 8 7 6 6 7 7 5 6 5 4 3 4 3 2 2 1 2 2 2 3 3 3 3 4 4 4 4 5 5 5 5 5 5 5 5 5 5 5 5
6 7 8 7 8 8 8 6 5 6 7 5 5 5 4 4 6 5 2 1 1 2 2 2 2 2 2 2 3 3 3 3 4 4 4 4 4 4 4 5 5 5 5 5
7 7 7 7 7 8 6 5 5 7 8 4 4 3 3 4 4 2 1 1 1 1 1 1 2 2 2 2 2 2 2 2 3 3 3 3 3 3 3 4 4 4 4 4
7 7 7 7 7 7 5 5 6 6 3 3 2 2 2 1 1 1 1 1 1 1 1 1 1 1 1 1 1 1 1 1 1 2 2 2 2 3 3 3 3 3 3 3
6 6 7 7 7 5 3 4 3 3 3 2 2 1 1 1 1 0 0 0 0 0 0 0 0 0 0 0 0 0 0 0 0 1 1 1 1 1 2 2 2 2 2 2
5 3 5 5 5 3 2 2 2 2 2 2 2 1 1 0 0 0 0 -0 -0 -0 -0 -0 -0 -0 -0 -1 -1 -1 -1 -1 -1 -1 -0 -0 0 0 1 1 1 1 1 2
5 4 4 5 4 3 2 2 2 2 2 1 1 1 1 0 -0 -0 -1 -1 -1 -1 -1 -1 -1 -1 -1 -1 -1 -1 -2 -2 -2 -1 -1 -1 -1 -1 -1 -0 -0 0 0 1
3 4 5 6 5 4 3 2 2 2 1 1 1 1 0 -0 -1 -1 -1 -1 -1 -2 -2 -2 -2 -2 -2 -2 -2 -2 -2 -2 -2 -2 -2 -2 -2 -2 -2 -1 -1 -0 -0 -0
Wind_Speed
4 5 8 9 11 8 6 7 8 7 5 5 9 11 11 10 10 11 10 10 10 10 8 7 7 6 6 7 9 11 12 11 10 9 9 8 9 8 7 7 10 12 12 13
4 8 9 8 8 9 8 7 7 5 4 5 7 10 9 10 11 9 9 9 9 8 7 7 7 7 7 8 9 10 11 11 12 10 8 7 6 6 7 6 8 11 12 12
6 3 2 5 8 8 9 9 7 5 3 5 6 6 8 8 8 7 7 8 8 9 9 8 7 7 7 8 9 9 10 10 11 10 7 5 4 4 5 7 7 9 11 12
5 4 5 5 6 7 6 7 7 7 5 3 4 2 3 5 6 6 7 7 7 7 7 7 6 6 7 7 7 9 10 10 10 10 9 10 8 7 7 6 6 6 8 10
3 2 3 4 4 6 4 3 5 5 4 2 3 3 1 2 4 5 6 6 6 6 6 5 5 5 5 5 6 8 9 9 9 9 10 10 9 7 5 5 7 7 6 7
4 3 2 2 1 4 2 3 3 2 2 2 3 3 1 1 3 4 4 4 5 4 4 3 3 3 3 3 4 5 7 8 9 9 10 11 11 9 8 8 8 6 5 5
1 1 1 1 1 3 3 3 2 3 2 1 1 1 2 6 6 5 3 1 2 2 3 3 3 3 3 3 3 4 6 6 7 8 8 9 10 10 10 9 9 8 6 5
1 1 1 0 0 2 3 2 1 1 3 2 1 0 3 7 7 5 3 3 4 5 4 5 4 3 3 2 2 2 4 5 5 6 6 6 8 8 8 9 8 9 7 7
1 2 1 1 0 2 2 1 2 1 1 2 2 1 2 8 10 9 8 7 7 6 6 6 6 6 5 4 3 2 3 3 4 4 4 5 6 6 7 7 7 7 7 7
1 1 1 1 1 1 0 1 2 0 1 2 2 2 3 8 9 8 8 9 9 8 8 8 7 7 6 5 4 4 3 3 3 3 3 2 3 4 5 6 7 7 7 8
0 0 1 1 1 1 1 0 1 1 2 1 3 3 5 5 5 6 7 8 9 9 9 9 8 8 7 7 6 6 5 4 3 2 2 2 2 3 4 5 6 7 7 9
0 0 1 1 1 2 2 2 2 1 2 2 2 3 6 4 4 6 8 9 9 10 9 9 9 9 9 8 8 7 6 5 4 3 2 1 1 2 3 4 5 6 7 8
1 0 1 2 2 1 1 1 1 1 1 2 2 3 5 6 7 7 8 8 9 9 10 10 10 10 10 9 8 8 7 6 5 3 2 2 1 1 2 3 4 5 6 7
1 2 2 2 2 1 1 2 1 0 1 2 2 3 3 5 6 6 7 8 8 10 10 11 10 10 10 9 8 8 7 6 5 4 2 1 0 1 1 2 3 5 6 7
1 2 2 3 2 1 2 2 2 1 1 1 3 2 2 2 3 4 5 7 8 9 10 11 10 9 10 10 9 8 8 7 6 5 3 2 2 1 1 3 4 4 5 6
2 2 1 2 3 2 3 3 2 2 1 2 2 1 3 3 4 5 5 6 7 8 9 9 9 10 10 10 9 9 8 8 6 5 4 3 2 2 2 3 4 5 5 6
1 1 1 1 3 1 1 3 1 1 1 0 1 1 2 2 3 3 4 5 6 7 8 9 9 9 9 9 9 9 9 8 7 6 5 4 3 3 2 3 4 6 6 7
1 2 1 0 0 1 2 2 1 1 1 1 1 1 1 2 3 3 4 4 5 6 7 8 8 8 8 8 8 8 7 7 6 6 5 5 4 4 3 4 5 6 6 7
1 1 1 0 1 1 1 1 0 1 0 0 1 1 2 3 2 1 3 4 4 5 6 7 7 8 8 8 8 8 7 7 6 6 6 6 5 5 5 5 6 6 6 7
3 1 1 1 2 2 2 2 0 2 2 2 2 2 2 2 3 1 2 4 5 6 6 7 7 7 8 8 8 8 8 8 8 8 8 7 7 6 6 6 6 6 6 7
2 2 2 3 3 2 1 0 2 3 1 3 3 2 2 1 2 2 3 4 5 6 7 7 7 7 7 8 8 8 8 8 9 9 9 8 7 7 7 6 5 6 6 6
4 3 4 4 4 2 3 3 3 1 3 3 2 2 1 1 2 3 4 5 6 6 7 7 7 8 8 8 7 8 8 9 9 9 9 9 8 6 5 6 6 6 7 7
4 3 2 3 1 2 2 2 0 1 2 2 1 1 1 2 3 4 5 6 6 7 7 7 8 9 8 8 8 9 9 9 9 10 10 9 8 7 6 6 6 6 6 7
3 2 3 3 4 3 3 3 2 2 2 2 1 2 2 4 5 6 6 6 7 8 8 8 9 10 10 9 9 9 10 9 9 10 10 8 8 7 6 5 6 6 7 7
3 5 4 5 3 3 4 6 5 4 3 2 2 2 3 5 6 6 7 7 8 8 8 8 9 10 11 11 10 10 9 9 10 10 9 8 7 7 7 6 7 8 8 8
6 7 6 4 4 4 3 4 6 5 4 4 3 4 4 5 6 7 7 8 8 9 9 9 10 11 11 11 11 11 9 9 10 10 9 7 7 7 7 7 7 9 10 12
Wind_Direction
199 220 226 224 224 241 251 253 250 255 255 246 242 251 252 251 245 236 219 209 209 209 199 191 195 200 192 204 211 208 205 201 195 188 186 189 193 191 191 194 200 200 197 195
213 239 247 246 232 233 238 243 247 260 245 241 251 259 256 251 245 236 221 209 204 193 189 184 183 188 194 208 215 209 209 209 201 198 193 194 190 192 195 196 202 203 202 199
236 268 257 227 214 216 230 235 236 237 269 252 254 267 248 240 237 236 232 221 211 197 188 181 176 185 193 204 212 210 212 214 208 203 193 180 175 182 192 196 201 205 206 204
262 273 243 231 227 221 234 234 233 227 223 226 227 260 249 229 226 227 232 223 215 204 194 186 182 186 196 207 211 214 210 209 206 201 200 198 200 207 205 201 197 198 206 205
270 270 248 240 243 221 226 220 214 217 220 245 243 244 279 199 220 232 236 227 217 210 194 179 175 181 188 191 199 206 205 206 204 202 203 207 211 211 201 193 192 193 197 199
266 266 275 272 258 207 188 148 158 193 224 241 259 230 87 45 298 279 250 228 212 207 184 164 146 152 165 169 183 193 195 199 199 198 202 206 208 200 194 193 194 195 194 192
334 242 239 234 134 154 179 169 157 161 184 220 331 223 36 7 348 321 299 255 178 165 147 118 99 110 129 144 157 173 177 187 188 190 201 205 208 205 203 197 198 194 192 192
355 29 7 332 318 151 183 258 296 162 158 133 153 113 28 14 11 17 39 72 90 93 90 80 71 66 70 84 103 145 170 174 177 183 192 196 203 205 205 201 196 196 194 192
3 32 42 325 300 168 182 235 304 359 106 117 115 78 56 25 30 40 56 66 69 73 73 69 57 49 41 44 51 91 141 147 149 161 171 182 192 197 198 194 193 194 191 182
335 67 22 324 201 83 277 291 267 281 128 106 106 67 16 0 11 29 46 56 62 63 61 60 55 50 44 44 46 57 80 110 118 137 152 172 184 190 190 186 191 190 185 179
266 64 50 66 22 356 9 42 352 39 356 41 119 76 12 349 8 40 49 50 54 56 55 52 52 50 46 45 47 50 54 63 70 81 120 152 159 172 177 183 184 184 181 180
228 352 57 15 346 305 320 352 329 354 47 21 85 69 19 34 58 68 66 61 58 57 56 55 54 52 46 43 40 40 44 48 45 40 48 75 105 155 174 181 180 178 177 177
183 176 134 143 144 67 6 13 9 44 73 46 73 92 46 63 69 69 69 66 63 59 54 51 47 42 36 34 33 31 33 31 27 26 35 51 84 164 180 185 180 178 176 173
154 44 11 53 48 4 10 26 38 54 62 83 80 111 82 67 71 65 62 62 60 54 47 42 39 35 30 27 25 24 23 18 14 11 13 18 333 236 201 191 184 181 178 174
33 72 64 48 30 42 43 37 55 66 11 84 103 111 109 96 84 69 62 60 54 46 39 33 29 26 23 21 19 16 12 8 1 355 348 342 328 274 203 194 188 182 181 178
40 98 95 63 39 43 45 24 31 41 62 121 124 104 67 83 79 67 55 52 47 37 29 22 18 15 14 11 6 4 3 358 351 343 334 329 316 287 226 205 193 187 184 179
77 114 79 65 343 288 22 358 330 64 36 267 219 92 109 101 80 63 48 44 36 23 15 10 5 3 0 358 353 352 350 348 345 340 331 323 307 283 253 221 205 198 193 186
131 114 87 55 285 207 56 33 350 151 66 7 44 72 121 123 103 71 43 35 23 9 1 358 354 351 348 346 345 341 341 341 338 334 329 319 304 284 264 236 220 212 203 197
41 141 124 179 233 253 155 128 202 273 251 313 194 130 106 124 148 100 42 20 3 354 348 344 342 339 338 341 340 334 334 335 334 332 326 315 298 280 262 244 232 220 210 206
75 108 162 180 242 234 113 107 348 243 226 144 176 166 153 182 248 339 21 347 344 343 340 336 334 334 335 338 335 330 329 329 329 326 318 308 293 277 264 253 242 230 216 211
159 167 196 211 243 264 105 143 205 223 62 133 164 168 170 215 320 351 331 328 331 331 330 328 326 326 328 328 326 321 321 321 320 316 311 304 293 280 269 260 245 232 219 209
205 195 198 202 222 232 130 167 206 15 93 138 153 165 192 250 304 306 310 314 318 321 322 323 319 317 319 322 317 311 311 314 314 311 307 303 298 288 272 259 246 232 219 212
222 230 228 224 245 64 159 199 62 126 158 162 176 194 213 262 282 294 300 305 310 313 315 316 314 312 313 316 313 306 308 311 310 307 304 302 299 289 274 260 248 235 223 219
208 200 222 249 244 222 212 209 197 184 179 169 188 213 236 265 281 291 297 302 307 310 311 313 312 309 309 312 309 304 305 306 304 302 301 298 295 289 278 264 249 238 230 225
205 182 210 242 239 223 221 211 198 182 179 184 211 244 256 270 281 289 295 299 303 305 307 307 304 303 304 307 305 304 303 302 298 296 294 292 288 283 278 266 253 246 242 238
196 196 200 224 198 199 194 184 184 190 203 215 239 262 267 274 283 289 291 295 298 299 301 300 298 298 301 303 301 301 299 297 295 292 291 288 286 282 277 275 272 254 249 251
Height
1477 1477 1471 1468 1469 1467 1467 1464 1460 1458 1459 1459 1457 1454 1452 1452 1453 1452 1453 1453 1455 1458 1460 1463 1465 1467 1470 1473 1476 1480 1483 1487 1491 1494 1498 1502 1505 1509 1512 1515 1519 1522 1525 1527
1475 1471 1468 1468 1468 1468 1467 1464 1461 1458 1458 1458 1454 1451 1449 1449 1450 1450 1450 1452 1453 1455 1458 1461 1463 1465 1467 1469 1473 1476 1480 1483 1487 1491 1495 1498 1502 1505 1508 1511 1515 1518 1521 1524
1469 1466 1466 1467 1466 1466 1464 1462 1458 1458 1457 1455 1453 1448 1444 1444 1447 1448 1448 1450 1451 1453 1455 1458 1460 1463 1465 1467 1470 1473 1477 1480 1483 1487 1490 1494 1498 1501 1505 1508 1511 1514 1517 1520
1467 1466 1465 1465 1463 1463 1461 1458 1458 1458 1458 1453 1452 1447 1440 1440 1442 1444 1446 1448 1449 1451 1453 1455 1457 1460 1463 1465 1468 1471 1473 1477 1480 1482 1485 1489 1493 1496 1500 1504 1507 1510 1513 1515
1465 1465 1464 1463 1462 1461 1458 1458 1458 1458 1457 1454 1450 1447 1440 1439 1440 1442 1444 1446 1447 1449 1452 1453 1455 1458 1461 1463 1466 1468 1471 1474 1477 1479 1483 1487 1490 1493 1496 1500 1503 1505 1508 1510
1464 1464 1464 1462 1461 1460 1459 1460 1459 1458 1455 1454 1448 1445 1441 1440 1442 1442 1443 1445 1446 1448 1450 1451 1453 1456 1458 1461 1464 1466 1468 1471 1474 1477 1480 1483 1486 1489 1492 1494 1497 1500 1502 1505
1462 1462 1462 1462 1461 1461 1460 1458 1455 1455 1453 1449 1448 1446 1444 1444 1445 1445 1444 1445 1446 1447 1449 1450 1452 1455 1457 1459 1461 1464 1466 1469 1472 1475 1478 1480 1482 1485 1488 1490 1492 1495 1497 1499
1461 1460 1461 1461 1460 1458 1459 1457 1451 1447 1445 1446 1449 1446 1446 1448 1448 1447 1446 1446 1446 1448 1449 1450 1452 1455 1456 1458 1460 1462 1464 1467 1470 1472 1474 1477 1479 1481 1483 1486 1487 1490 1492 1494
1458 1459 1461 1461 1460 1459 1458 1456 1455 1449 1445 1444 1446 1447 1447 1448 1448 1448 1448 1448 1448 1449 1450 1452 1453 1455 1456 1457 1459 1461 1463 1465 1467 1470 1472 1474 1476 1478 1480 1481 1483 1485 1488 1490
1461 1461 1460 1461 1460 1460 1459 1456 1454 1450 1446 1443 1446 1447 1449 1451 1452 1452 1452 1451 1452 1452 1453 1453 1455 1455 1457 1458 1460 1461 1462 1464 1465 1468 1470 1472 1474 1475 1476 1477 1479 1482 1484 1486
1463 1461 1461 1460 1460 1458 1458 1457 1454 1450 1448 1442 1444 1452 1458 1458 1458 1457 1457 1456 1455 1455 1454 1455 1456 1457 1458 1458 1459 1460 1461 1463 1464 1466 1468 1469 1470 1472 1473 1474 1476 1478 1480 1481
1463 1461 1461 1461 1461 1461 1459 1457 1454 1450 1453 1449 1444 1460 1462 1461 1462 1461 1461 1460 1459 1458 1457 1457 1457 1458 1459 1459 1460 1460 1461 1462 1463 1464 1466 1467 1468 1469 1470 1471 1473 1474 1475 1477
1463 1461 1460 1458 1462 1462 1459 1459 1458 1455 1453 1451 1448 1461 1464 1464 1464 1464 1463 1463 1463 1462 1460 1459 1459 1459 1459 1459 1460 1460 1461 1462 1462 1463 1464 1465 1465 1466 1467 1468 1469 1470 1472 1473
1464 1462 1461 1459 1459 1461 1459 1459 1459 1457 1454 1452 1453 1459 1464 1466 1466 1467 1466 1466 1465 1464 1463 1462 1462 1461 1461 1461 1461 1461 1461 1461 1461 1462 1462 1463 1463 1463 1464 1465 1465 1466 1468 1469
1463 1464 1467 1465 1465 1463 1462 1461 1460 1460 1457 1455 1458 1460 1465 1467 1469 1469 1469 1468 1467 1466 1465 1465 1464 1463 1463 1462 1462 1461 1461 1461 1460 1460 1461 1460 1460 1461 1461 1462 1462 1463 1464 1465
1465 1465 1466 1467 1466 1464 1464 1463 1463 1463 1462 1461 1462 1465 1469 1471 1471 1471 1471 1470 1470 1469 1468 1467 1466 1464 1463 1462 1462 1461 1460 1459 1459 1459 1458 1458 1458 1458 1458 1458 1459 1460 1461 1462
1466 1466 1466 1464 1466 1463 1461 1466 1466 1466 1468 1464 1462 1467 1471 1472 1473 1473 1473 1473 1472 1471 1470 1468 1467 1465 1464 1462 1461 1460 1459 1458 1457 1456 1455 1455 1454 1454 1454 1454 1455 1456 1457 1458
1467 1467 1468 1466 1465 1467 1469 1472 1471 1469 1470 1471 1470 1471 1472 1473 1474 1475 1474 1473 1473 1471 1470 1468 1467 1465 1464 1462 1460 1459 1457 1456 1455 1454 1452 1452 1451 1450 1450 1450 1451 1451 1452 1453
1470 1468 1467 1466 1463 1462 1468 1471 1472 1469 1469 1472 1472 1473 1474 1475 1474 1474 1474 1473 1473 1471 1470 1468 1466 1464 1462 1460 1459 1457 1455 1453 1452 1450 1449 1448 1447 1446 1446 1446 1446 1447 1447 1448
1472 1470 1468 1468 1464 1461 1466 1472 1473 1473 1467 1473 1473 1473 1474 1474 1471 1473 1474 1472 1471 1470 1468 1466 1464 1462 1460 1458 1456 1454 1452 1450 1448 1447 1445 1444 1443 1442 1442 1441 1441 1442 1442 1443
1470 1470 1469 1468 1466 1461 1470 1473 1474 1469 1466 1473 1473 1474 1474 1474 1474 1475 1473 1471 1470 1468 1466 1464 1462 1460 1457 1455 1453 1451 1449 1447 1445 1443 1441 1440 1438 1437 1436 1436 1436 1436 1437 1437
1468 1467 1468 1467 1466 1466 1471 1471 1470 1469 1472 1472 1473 1474 1474 1474 1473 1472 1471 1470 1468 1466 1464 1462 1459 1457 1455 1452 1450 1447 1445 1443 1441 1439 1437 1435 1433 1432 1431 1430 1430 1430 1431 1431
1470 1469 1466 1466 1467 1470 1471 1471 1471 1471 1472 1473 1473 1473 1473 1472 1471 1470 1469 1467 1466 1464 1461 1459 1456 1454 1451 1449 1446 1444 1441 1439 1436 1434 1432 1430 1428 1427 1426 1425 1425 1425 1425 1425
1471 1473 1471 1469 1467 1469 1470 1470 1470 1471 1471 1472 1472 1472 1471 1471 1469 1468 1467 1465 1463 1461 1458 1456 1453 1450 1448 1445 1443 1440 1437 1434 1431 1429 1426 1425 1423 1422 1421 1420 1419 1419 1418 1419
1466 1470 1468 1466 1467 1468 1468 1468 1469 1469 1470 1470 1470 1470 1469 1468 1467 1466 1464 1462 1460 1457 1455 1452 1449 1446 1443 1441 1438 1435 1432 1429 1426 1424 1421 1419 1418 1416 1415 1414 1413 1413 1412 1413
1465 1464 1463 1460 1463 1464 1465 1465 1467 1468 1468 1468 1468 1467 1467 1466 1464 1463 1461 1459 1456 1453 1451 1448 1445 1442 1439 1436 1433 1430 1427 1424 1422 1419 1416 1414 1412 1410 1409 1408 1407 1406 1406 1406